Location: Ashtead
(51.3000°N, 0.3000°W)
Time: 04:05:27
(UTC+00:00)

BlueWalker 3 - Pass Details

Date: 26 September 2023
Orbit: 489 x 504 km, 53.2° (Epoch: 29 November)

Event Time Altitude Azimuth Distance (km) Brightness Sun altitude
Exits shadow 03:18:02 60° 34° (NE) 579 2.4 -23.9°
Drops below altitude 10° 03:21:28 10° 77° (ENE) 1,714 5.6 -23.5°
Sets 03:23:41 0° 81° (E) 2,603 6.7 -23.2°
